Regional Weather Roundup
Issued by NWS

Home | Current Version | Previous Version | Text Only | Print | Product List | Glossary Off
Versions: 1 2 3 4 5 6 7 8 9 10 11 12 13 14 15 16 17 18 19 20 21 22 23 24 25 26 27 28 29 30 31 32 33 34 35 36 37 38 39 40 41 42 43 44 45 46 47 48 49 50

000
ASUS43 KDTX 291901
RWRMI
MICHIGAN HOURLY REGIONAL WEATHER ROUNDUP
NATIONAL WEATHER SERVICE DETROIT/PONTIAC MI
300 PM EDT FRI APR 29 2016

NOTE: "FAIR" INDICATES FEW OR NO CLOUDS BELOW 12,000 FEET WITH NO
SIGNIFICANT WEATHER AND/OR OBSTRUCTION TO VISIBILITY.

MIZ047>049-052>055-059>063-066>070-074>076-081>083-292000-
SOUTHEAST LOWER MICHIGAN

CITY           SKY/WX    TMP DP  RH WIND       PRES   REMARKS
ADRIAN         CLOUDY    54  39  57 NE5       30.08R
ALMA           CLOUDY    47  38  69 CALM      30.14R
ANN ARBOR      PTSUNNY   51  37  58 N10       30.08R
BAD AXE        CLOUDY    50  33  51 NE12      30.11R
CARO           CLOUDY    48  38  69 N6        30.10S
DETROIT CITY   CLOUDY    48  35  60 N9        30.11R
DETROIT        CLOUDY    50  37  61 N8        30.10R
FLINT          CLOUDY    49  37  63 NE7       30.12R
GROSSE ILE     CLOUDY    48  39  71 NE10      30.08R
HILLSDALE      CLOUDY    52  41  65 NE7       30.06S
HOWELL         CLOUDY    47  38  70 N6        30.10R

CITY           SKY/WX    TMP DP  RH WIND       PRES   REMARKS
JACKSON        CLOUDY    52  37  56 VRB7      30.07S
LAMBERTVILLE   CLOUDY    53  39  60 NE6       30.08R
LANSING        CLOUDY    49  39  68 N10       30.12R
LAPEER         CLOUDY    46  36  67 NE3       30.11R
MASON          CLOUDY    49  39  69 NE7       30.09S
MONROE         CLOUDY    50  40  68 NE6       30.08R
MT. CLEMENS    CLOUDY    49  38  66 SE2       30.08S
PONTIAC        CLOUDY    46  36  68 NE6       30.10R
PORT HOPE        N/A     43  36  76 NE6       30.12R
PORT HURON     CLOUDY    48  32  53 NE9       30.10R
TRI CITIES     CLOUDY    51  34  52 E8        30.11S
MIDLAND        CLOUDY    52  34  51 NE12      30.10F
TROY           CLOUDY    47  38  69 N6        30.11R
SAGINAW HB     CLOUDY    46  37  71 NE9       30.10F
$$
MIZ043>046-050>051-056>058-064>065-071>073-077>080-292000-
SOUTHWEST LOWER MICHIGAN

CITY           SKY/WX    TMP DP  RH WIND       PRES   REMARKS
BATTLE CREEK   PTSUNNY   51  39  63 NE8       30.08F
BENTON HARBOR  CLOUDY    47  42  83 VRB6      30.08S
BIG RAPIDS     PTSUNNY   52  31  44 SE9       30.10S
COLDWATER      CLOUDY    54  42  65 NE6       30.06F
FREMONT        CLOUDY    48  37  64 SE6       30.12R
HOLLAND        SUNNY     52  40  63 NE8       30.08F
GRAND RAPIDS   PTSUNNY   49  40  71 NE10      30.10F
IONIA          CLOUDY    46  39  75 NE6       30.11S
KALAMAZOO      CLOUDY    52  40  63 VRB5      30.09R
LUDINGTON      SUNNY     51  39  63 W10       30.13R
MARSHALL       CLOUDY    51  40  66 N7        30.07F
MOUNT PLEASANT MOSUNNY   53  34  49 E8G17     30.10F
MUSKEGON       PTSUNNY   51  38  60 NE10      30.10F
$$
MIZ016>042-292000-
NORTHERN LOWER MICHIGAN

CITY           SKY/WX    TMP DP  RH WIND       PRES   REMARKS
ALPENA         SUNNY     53  32  44 NE9       30.13S
BEAVER ISLAND  SUNNY     55  27  33 E5        30.13S
BELLAIRE       SUNNY     59  24  26 S5        30.09S
CADILLAC       CLOUDY    55  32  41 E7        30.07R
CHARLEVOIX     SUNNY     48  35  59 N10       30.15S
FRANKFORT      SUNNY     53  35  50 N13       30.10S
GAYLORD        SUNNY     55  28  35 MISG      30.09S
GRAYLING       CLOUDY    58  27  30 NE14G20   30.09S
HARBOR SPRINGS SUNNY     56  31  39 E10G18    30.11S
HOUGHTON LAKE  CLOUDY    56  29  35 E13       30.08S
MANISTEE       SUNNY     50  28  43 NW14      30.11R
OSCODA         PTSUNNY   50  33  51 E9        30.12F
PELLSTON       SUNNY     56  27  32 E13       30.13R
ROGERS CITY    SUNNY     45  30  55 NE3       30.15S
TRAVERSE CITY  MOSUNNY   56  31  38 NW14      30.09S
$$
MIZ007>008-015-292000-
EASTERN UPPER MICHIGAN

CITY           SKY/WX    TMP DP  RH WIND       PRES   REMARKS
KINROSS          N/A     55  28  35 E9        30.11S
MACKINAC ISLAN SUNNY     52  28  39 SE12      30.13R
NEWBERRY       CLOUDY    56  31  39 N7        30.11R
S. S. MARIE    SUNNY     58  30  34 N9        30.09F
MUNISING         N/A     44  34  67 NE6       30.16R
$$
MIZ004>006-011>014-085-292000-
CENTRAL UPPER MICHIGAN

CITY           SKY/WX    TMP DP  RH WIND       PRES   REMARKS
MANISTIQUE     SUNNY     51  28  40 S6        30.13R
ESCANABA       MOSUNNY   54  27  35 S9        30.14S
MENOMINEE      CLOUDY    48  25  40 E6        30.17R
SAWYER-GWINN   SUNNY     50  25  37 NE10      30.16R
$$
MIZ001>003-009>011-084-292000-
WESTERN UPPER MICHIGAN

CITY           SKY/WX    TMP DP  RH WIND       PRES   REMARKS
IRON MOUNTAIN  CLOUDY    57  23  26 N6        30.12R
HOUGHTON       SUNNY     52  29  41 N12       30.15R
COPPER HARBOR    N/A     41  37  86 NE3       30.18S
IRONWOOD         N/A     48  34  57 N12       30.15R
$$

ABBREVIATIONS USED IN REMARKS
   TC - TEMPERATURE IN CELSIUS
  WCI - WIND CHILL INDEX
   HX - HEAT INDEX
  VSB - VISIBILITY




USA.gov is the U.S. government's official web portal to all federal, state and local government web resources and services.